Location: Unspecified
(0.0000°N, 0.0000°E)
Time: 12:54:02
(UTC+00:00)

S-56A Canister/Altair - Pass Details

Date: 28 November 2019
Orbit: 633 x 2499 km, 38.9° (Epoch: 12 July)

Event Time Altitude Azimuth Distance (km) Brightness Sun altitude
Rises 23:00:43 0° 298° (WNW) 3,141 - -65.7°
Reaches altitude 10° 23:03:21 10° 290° (WNW) 2,100 - -66.0°
Maximum altitude 23:07:39 38° 221° (SW) 966 - -66.5°
Drops below altitude 10° 23:11:50 10° 152° (SSE) 2,049 - -66.9°
Sets 23:14:23 0° 144° (SE) 3,053 - -67.1°
